G0AMO Weather Reports


time (UTC)temp
C
wind
direction
speed
KPH
gust
KPH
rain 1hr
cm
rain 24hr
cm
rain mn
cm
humidity
%
barometer
mb
20260502152004 13 96 0.0 0.0 0.13 0.13 0.13 89 1013.9
20260502151503 13 226 0.0 3.2 0.10 0.10 0.10 88 1014.2
20260502151003 13 211 1.6 3.2 0.05 0.05 0.05 86 1014.2
20260502150504 14 154 0.0 8.0 0.03 0.03 0.03 84 1014.6
20260502130503 20 232 0.0 0.0 0.00 0.00 0.00 53 1015.6
20260502123004 18 77 3.2 8.0 0.00 0.00 0.00 60 1015.9
20260502122504 18 50 4.8 8.0 0.00 0.00 0.00 60 1015.9
20260502122004 18 220 0.0 0.0 0.00 0.00 0.00 61 1016.3
20260502121503 18 257 0.0 0.0 0.00 0.00 0.00 61 1016.3
20260502120503 18 331 0.0 19.3 0.00 0.00 0.00 64 1016.3
20260502115005 17 82 0.0 19.3 0.00 0.00 0.00 66 1016.6
20260502114505 17 24 9.7 11.3 0.00 0.00 0.00 65 1016.6
20260502114004 17 73 8.0 11.3 0.00 0.00 0.00 66 1016.6
20260502113004 17 83 9.7 19.3 0.00 0.00 0.00 67 1016.9
20260502112504 17 100 8.0 11.3 0.00 0.00 0.00 64 1017.3
20260502112004 17 334 4.8 8.0 0.00 0.00 0.00 62 1016.6
20260502111504 17 132 0.0 8.0 0.00 0.00 0.00 66 1017.3
20260502111004 17 214 0.0 8.0 0.00 0.00 0.00 64 1017.3
20260502110505 17 101 3.2 8.0 0.00 0.00 0.00 67 1017.3
20260502110004 17 9 1.6 3.2 0.00 0.00 0.00 67 1017.3
20260502105504 17 121 0.0 0.0 0.00 0.00 0.00 68 1017.3
20260502105004 16 7 0.0 3.2 0.00 0.00 0.00 68 1017.3
20260502103504 16 105 0.0 3.2 0.00 0.00 0.00 71 1017.9
20260502103004 16 130 0.0 3.2 0.00 0.00 0.00 72 1017.9
20260502102505 16 132 4.8 14.5 0.00 0.00 0.00 70 1017.9
20260502101504 15 98 0.0 3.2 0.00 0.00 0.00 75 1017.9
20260502100504 15 295 4.8 8.0 0.00 0.00 0.00 76 1018.3
20260502091004 13 94 3.2 8.0 0.00 0.00 0.00 83 1018.9
20260502090504 12 336 0.0 0.0 0.00 0.00 0.00 87 1018.6
20260502071503 8 219 0.0 0.0 0.00 0.00 0.00 99 1018.6
20260502071005 8 219 0.0 0.0 0.00 0.00 0.00 99 1018.6
20260502070504 8 220 0.0 0.0 0.00 0.00 0.00 99 1019.0
20260502070005 8 265 0.0 0.0 0.00 0.00 0.00 99 1019.0
20260502065505 8 265 0.0 0.0 0.00 0.00 0.00 99 1018.6
20260502065004 8 306 0.0 0.0 0.00 0.00 0.00 99 1020.0
20260502064005 8 306 0.0 0.0 0.00 0.00 0.00 99 1018.6
20260502063503 8 306 0.0 0.0 0.00 0.00 0.00 99 1019.6
20260502063004 8 306 0.0 0.0 0.00 0.00 0.00 99 1019.6
20260502062003 8 306 0.0 0.0 0.00 0.00 0.00 99 1020.0
20260502060504 8 306 0.0 0.0 0.00 0.00 0.00 99 1020.0
20260502060004 8 306 0.0 0.0 0.00 0.00 0.00 99 1018.6
20260502055505 8 306 0.0 0.0 0.00 0.00 0.00 98 1018.6
20260502055004 8 306 0.0 0.0 0.00 0.00 0.00 98 1020.0
20260502054504 8 306 0.0 0.0 0.00 0.00 0.00 98 1019.0
20260502054004 8 306 0.0 0.0 0.00 0.00 0.00 98 1019.0
20260502052503 8 306 0.0 0.0 0.00 0.00 0.00 98 1019.6
20260502052005 7 306 0.0 0.0 0.00 0.00 0.00 98 1018.6
20260502051503 7 306 0.0 0.0 0.00 0.00 0.00 98 1019.6
20260502051004 7 306 0.0 0.0 0.00 0.00 0.00 98 1019.6
20260502050004 7 306 0.0 0.0 0.00 0.00 0.00 98 1020.0
20260502045504 7 306 0.0 0.0 0.00 0.00 0.00 98 1018.6
20260502045005 7 306 0.0 0.0 0.00 0.00 0.00 98 1018.6
20260502044004 7 306 0.0 0.0 0.00 0.00 0.00 98 1019.6
20260502043504 7 306 0.0 0.0 0.00 0.00 0.00 98 1020.0
20260502043005 7 306 0.0 0.0 0.00 0.00 0.00 98 1018.6
20260502042504 7 306 0.0 0.0 0.00 0.00 0.00 98 1018.6
20260502042003 7 306 0.0 0.0 0.00 0.00 0.00 98 1018.6
20260502041504 7 306 0.0 0.0 0.00 0.00 0.00 98 1019.6
20260502041004 7 306 0.0 0.0 0.00 0.00 0.00 98 1018.6
20260502040503 7 301 0.0 0.0 0.00 0.00 0.00 98 1020.0
20260502035504 7 301 0.0 0.0 0.00 0.00 0.00 98 1020.0
20260502034503 7 301 0.0 0.0 0.00 0.00 0.00 97 1020.0
20260502033504 7 301 0.0 0.0 0.00 0.00 0.00 97 1019.0
20260502033003 7 301 0.0 0.0 0.00 0.00 0.00 97 1019.0
20260502032504 7 301 0.0 0.0 0.00 0.00 0.00 97 1019.0
20260502032004 7 301 0.0 0.0 0.00 0.00 0.00 97 1019.3
20260502031504 7 301 0.0 0.0 0.00 0.00 0.00 97 1019.3
20260502031004 7 301 0.0 3.2 0.00 0.00 0.00 97 1019.3
20260502030004 7 301 0.0 0.0 0.00 0.00 0.00 97 1020.3
20260502025004 8 301 0.0 0.0 0.00 0.00 0.00 97 1020.3
20260502023504 7 301 0.0 0.0 0.00 0.00 0.00 96 1019.3
20260502023004 7 301 0.0 0.0 0.00 0.00 0.00 96 1019.3
20260502022505 7 301 0.0 0.0 0.00 0.00 0.00 96 1019.3
20260502022004 7 301 0.0 0.0 0.00 0.00 0.00 96 1020.3
20260502021004 7 301 0.0 0.0 0.00 0.00 0.00 96 1019.3
20260502020503 7 301 0.0 0.0 0.00 0.00 0.00 96 1020.3
20260502020004 7 301 0.0 0.0 0.00 0.00 0.00 96 1020.3
20260502015505 7 301 0.0 0.0 0.00 0.00 0.00 96 1019.3
20260502015004 7 301 0.0 0.0 0.00 0.00 0.00 96 1020.0
20260502014504 7 301 0.0 0.0 0.00 0.00 0.00 96 1019.3
20260502014005 7 301 0.0 0.0 0.00 0.00 0.00 95 1019.6
20260502013003 7 301 0.0 0.0 0.00 0.00 0.00 95 1020.7
20260502012504 7 301 0.0 0.0 0.00 0.00 0.00 95 1019.9
20260502012004 8 301 0.0 0.0 0.00 0.00 0.00 95 1019.6
20260502011503 8 301 0.0 0.0 0.00 0.00 0.00 95 1019.6
20260502011004 8 301 0.0 0.0 0.00 0.00 0.00 95 1019.6
20260502010004 8 301 0.0 0.0 0.00 0.00 0.00 95 1020.7
20260502005504 8 301 0.0 0.0 0.00 0.00 0.00 95 1020.1
20260502005004 8 301 0.0 0.0 0.00 0.00 0.00 95 1019.8
20260502004504 8 301 0.0 0.0 0.00 0.00 0.00 95 1020.3
20260502004004 8 301 0.0 0.0 0.00 0.00 0.00 95 1020.3
20260502003504 8 301 0.0 0.0 0.00 0.00 0.00 95 1019.6
20260502003004 8 301 0.0 0.0 0.00 0.00 0.00 94 1019.7
20260502002504 8 301 0.0 0.0 0.00 0.00 0.00 94 1020.0
20260502002004 8 301 0.0 0.0 0.00 0.00 0.00 94 1020.2
20260502001504 8 301 0.0 0.0 0.00 0.00 0.00 94 1020.8
20260502000504 9 301 0.0 0.0 0.00 0.00 0.00 94 1020.0
20260502000004 9 301 0.0 0.0 0.00 0.00 0.00 93 1020.0
20260501235505 9 301 0.0 0.0 0.00 0.00 0.00 93 1021.0
20260501235004 10 301 0.0 0.0 0.00 0.00 0.00 93 1021.0
20260501234503 9 301 0.0 0.0 0.00 0.00 0.00 93 1021.3
20260501234005 10 301 0.0 0.0 0.00 0.00 0.00 93 1020.3
20260501233503 10 301 0.0 0.0 0.00 0.00 0.00 93 1020.3
20260501233004 10 301 0.0 0.0 0.00 0.00 0.00 92 1020.0
20260501232504 10 301 0.0 0.0 0.00 0.00 0.00 92 1020.3
20260501231504 10 301 0.0 0.0 0.00 0.00 0.00 92 1020.3
20260501230504 10 244 0.0 0.0 0.00 0.00 0.00 92 1020.3
20260501230004 10 244 0.0 0.0 0.00 0.00 0.00 92 1020.3
20260501225505 10 244 0.0 0.0 0.00 0.00 0.00 91 1021.0
20260501225004 11 244 0.0 0.0 0.00 0.00 0.00 91 1021.3
20260501224003 11 257 0.0 0.0 0.00 0.00 0.00 90 1021.3
20260501223504 11 228 0.0 0.0 0.00 0.00 0.00 90 1021.3
20260501222503 11 228 0.0 0.0 0.00 0.00 0.00 89 1020.3
20260501222004 11 228 0.0 0.0 0.00 0.00 0.00 88 1021.0
20260501221504 11 228 0.0 0.0 0.00 0.00 0.00 88 1020.3
20260501220505 12 228 0.0 0.0 0.00 0.00 0.00 87 1020.3
20260501220004 12 228 0.0 0.0 0.00 0.00 0.00 87 1020.3
20260501215503 12 228 0.0 0.0 0.00 0.00 0.00 86 1020.3
20260501215004 12 228 0.0 3.2 0.00 0.00 0.00 86 1020.7
20260501214503 12 263 0.0 3.2 0.00 0.00 0.00 86 1021.3
20260501214004 12 251 0.0 0.0 0.00 0.00 0.00 86 1021.3
20260501213004 12 234 0.0 0.0 0.00 0.00 0.00 85 1020.3
20260501212504 12 234 0.0 0.0 0.00 0.00 0.00 85 1020.3
20260501212005 12 207 0.0 0.0 0.00 0.00 0.00 85 1021.0
20260501211505 12 244 0.0 0.0 0.00 0.00 0.00 84 1020.3
20260501211004 12 262 0.0 0.0 0.00 0.00 0.00 84 1020.0
20260501205503 12 185 0.0 0.0 0.00 0.00 0.00 84 1021.0
20260501205003 12 240 0.0 0.0 0.00 0.00 0.00 83 1020.0
20260501204505 12 250 0.0 3.2 0.00 0.00 0.00 82 1020.0
20260501203005 13 150 1.6 8.0 0.00 0.00 0.00 80 1021.0
20260501202503 13 282 1.6 3.2 0.00 0.00 0.00 79 1020.3
20260501201504 13 203 0.0 0.0 0.00 0.00 0.00 78 1020.0
20260501200004 13 228 0.0 0.0 0.00 0.00 0.00 76 1020.0
20260501195503 14 195 0.0 0.0 0.00 0.00 0.00 75 1020.0
20260501195004 14 240 0.0 0.0 0.00 0.00 0.00 75 1020.0
20260501194503 14 228 0.0 8.0 0.00 0.00 0.00 74 1020.0
20260501193505 15 257 0.0 0.0 0.00 0.00 0.00 74 1020.0
20260501193004 15 254 0.0 0.0 0.00 0.00 0.00 74 1020.0
20260501192505 15 233 0.0 0.0 0.00 0.00 0.00 74 1020.3
20260501192004 15 219 0.0 0.0 0.00 0.00 0.00 74 1020.3
20260501191504 15 254 0.0 3.2 0.00 0.00 0.00 73 1020.3
20260501191004 15 234 1.6 3.2 0.00 0.00 0.00 73 1020.0
20260501190004 16 157 0.0 0.0 0.00 0.00 0.00 72 1019.6
20260501185504 16 239 0.0 0.0 0.00 0.00 0.00 72 1020.0
20260501185005 16 208 0.0 0.0 0.00 0.00 0.00 71 1019.3
20260501184504 16 246 0.0 0.0 0.00 0.00 0.00 71 1020.0
20260501184004 16 218 0.0 0.0 0.00 0.00 0.00 70 1019.3
20260501183505 16 257 0.0 0.0 0.00 0.00 0.00 69 1020.0
20260501182504 17 267 0.0 8.0 0.00 0.00 0.00 68 1020.0
20260501182004 17 267 0.0 0.0 0.00 0.00 0.00 67 1020.0
20260501181504 17 267 0.0 0.0 0.00 0.00 0.00 67 1020.0
20260501181004 17 267 0.0 0.0 0.00 0.00 0.00 66 1020.0
20260501180504 18 267 0.0 0.0 0.00 0.00 0.00 65 1020.0
20260501175503 18 247 0.0 3.2 0.00 0.00 0.00 65 1019.3
20260501175004 17 143 0.0 3.2 0.00 0.00 0.00 66 1020.0
20260501174504 17 250 1.6 3.2 0.00 0.00 0.00 66 1019.6
20260501174004 17 115 0.0 8.0 0.00 0.00 0.00 65 1020.0
20260501173504 17 264 3.2 11.3 0.00 0.00 0.00 65 1019.6
20260501173004 18 208 8.0 11.3 0.00 0.00 0.00 65 1020.0
20260501172004 18 286 1.6 4.8 0.00 0.00 0.00 65 1019.6
20260501171505 18 305 0.0 3.2 0.00 0.00 0.00 65 1019.6
20260501171003 18 288 0.0 3.2 0.00 0.00 0.00 64 1019.3
20260501170505 18 291 0.0 3.2 0.00 0.00 0.00 65 1019.6
20260501170004 18 294 0.0 0.0 0.00 0.00 0.00 65 1019.9
20260501165504 18 264 0.0 0.0 0.00 0.00 0.00 66 1019.7
20260501164505 18 174 0.0 3.2 0.00 0.00 0.00 65 1019.9
20260501164004 18 155 0.0 0.0 0.00 0.00 0.00 65 1019.6
20260501163504 18 209 0.0 3.2 0.00 0.00 0.00 65 1019.8
20260501163004 19 212 0.0 8.0 0.00 0.00 0.00 65 1020.0
20260501162503 19 183 0.0 8.0 0.00 0.00 0.00 65 1019.8
20260501162004 19 317 0.0 11.3 0.00 0.00 0.00 65 1019.8
20260501161504 19 182 1.6 11.3 0.00 0.00 0.00 66 1019.9
20260501161004 19 187 1.6 3.2 0.00 0.00 0.00 68 1019.7
20260501160503 19 53 0.0 3.2 0.00 0.00 0.00 69 1020.0